カタログに戻る

STARLINK-37431

運用中通信SSO
NORAD 68812·PAYLOAD·🇺🇸 United States

打ち上げ Apr 23, 2026 から Vandenberg Space Force Base

Loading…

次のパス (今後24時間)

TLE

最新Source: CelesTrak SupGP

元期: Sep 14, 2026, 21:27 UTC

1 68812C 26089L   26257.89423611  .00064805  00000+0  20121-2 0  2573
2 68812  97.2851 103.7115 0001587  94.4859  76.5504 15.33400046    11

AllMySatでSTARLINK-37431をリアルタイム追跡

Download on the App Store